Hourly Weather Roundup
Issued by NWS Central Illinois

Home | Current Version | Previous Version | Text Only | Print | Product List | Glossary On
Versions: 1 2 3 4 5 6 7 8 9 10 11 12 13 14 15 16 17 18 19 20 21 22 23 24 25 26 27 28 29 30 31 32 33 34 35 36 37 38 39 40 41 42 43 44 45 46 47 48 49 50
000
NZUS43 KILX 290910
HWRILX

AREA WEATHER ROUNDUP
NATIONAL WEATHER SERVICE, LINCOLN IL
400 AM CDT FRI AUG 29 2014


CITY           SKY/WX    TMP DP  RH WIND       PRES   REMARKS
BLOOMINGTON    MOCLDY    69  67  93 SE7       29.98F
CHAMPAIGN      MOCLDY    71  69  93 E7        29.98F
DECATUR        MOCLDY    71  69  93 SE5       29.98S
FLORA          MOCLDY    73  71  95 CALM      29.98S FOG
GALESBURG      MOCLDY    68  67  96 SE3       29.94S
JACKSONVILLE   PTCLDY    73  70  92 SE7       29.96S
LACON          MOCLDY    69  67  93 CALM      29.94S
LAWRENCEVILLE  MOCLDY    74  72  93 NE5       29.98F FOG
LITCHFIELD     CLOUDY    71  69  93 SE7       29.97S
$$


CITY           SKY/WX    TMP DP  RH WIND       PRES   REMARKS
LINCOLN        MOCLDY    71  69  94 CALM      29.93F
MACOMB         MOCLDY    69  68  97 S6        29.96F
MATTOON        MOCLDY    70  69  97 SE5       29.98F
MT CARMEL AP   MOCLDY    73  72  94 CALM      29.98F
OLNEY-NOBLE AP CLOUDY    72  72 100 CALM      29.98F FOG
PARIS          CLOUDY    69  69  98 E3        30.00F
PEORIA         PTCLDY    71  67  87 S5        29.95F
PONTIAC        MOCLDY    70  70 100 CALM      29.97S FOG
RANTOUL        CLOUDY    73  68  86 SE7       29.99F
ROBINSON       CLOUDY    75  73  93 E6        29.99F
SPRINGFIELD    MOCLDY    72  69  90 SE6       29.95F
TAYLORVILLE    CLOUDY    70  70 100 CALM      29.97S
$$

...REGIONAL REPORTS...


CITY           SKY/WX    TMP DP  RH WIND       PRES   REMARKS
CHICAGO O`HARE CLOUDY    71  63  75 S7        29.97S
KANKAKEE       CLOUDY    70  67  90 SE7       29.99S
MOLINE         MOCLDY    70  67  90 SE3       29.92F
MOUNT VERNON   MOCLDY    73  68  83 CALM      29.98F
PITTSFIELD     PTCLDY    72  69  90 SE6       29.95F
QUINCY         PTCLDY    72  69  90 SE6       29.93F
ROCKFORD       MOCLDY    67  65  93 S6        29.97S FOG
$$


CITY           SKY/WX    TMP DP  RH WIND       PRES   REMARKS
BURLINGTON     PTCLDY    72  69  90 S10       29.92S
CEDAR RAPIDS   CLOUDY    69  69 100 SW3       29.92S
DES MOINES     CLOUDY    69  66  90 SE7       29.86F
KIRKSVILLE     PTCLDY    72  70  93 S9        29.90F FOG
OTTUMWA        CLOUDY    70  68  93 CALM      29.91S
ST LOUIS       PTCLDY    76  70  82 SE9       29.95F
$$


CITY           SKY/WX    TMP DP  RH WIND       PRES   REMARKS
TERRE HAUTE    MOCLDY    71  68  90 E5        30.00S
EVANSVILLE     CLEAR     73  71  93 NE3       29.98F FOG
INDIANAPOLIS   CLOUDY    69  61  75 E7        30.02F
LAFAYETTE      MOCLDY    68  65  90 E3        30.02R
MADISON        MOCLDY    66  62  87 S7        29.94F
MILWAUKEE      PTCLDY    70  66  87 S10       29.97S
$$




USA.gov is the U.S. government's official web portal to all federal, state and local government web resources and services.